Content
SEND FEEDBACK

Daily
Averages
Monthly
Summary
Mexico

CANCUN, QUINTANA ROO


Home > North America > Mexico > Quintana Roo
Elevation: 30 feet     Latitude: 21 09N     Longitude: 086 49W

WEATHER
 
SELECT A DAY
Number of Records: 166,452;   Date Range: 1/1/95 - 10/24/14
 
SHARE

PRINT THIS DATA

[ ← Previous Day ]
WEATHER ALMANAC - JULY 20, 2014
[ Next Day → ]
[ °C ]   °F
Weather ElementAverageHighLow
Temperature85 °F89.6 °F (11:45 am)80.6 °F (4:47 am)
Dewpoint76.5 °F78.8 °F (9:45 pm)73.4 °F (12:46 pm)
Humidity76.4 %89 % (4:47 am)59 % (12:46 pm)
Barometer30.01 in30.04 in (8:40 am)29.97 in (3:45 pm)
Wind Speed6.9 mph10.4 mph (10:40 am)
Weather ElementAverage
Visibility7 mi
Wind DirectionE (93.5 °)

Weather ElementTotal
Precipitation---
Cooling Degree Days20.1 (Base 65)
Growing Degree Days35.1 (Base 50)
Averaged from 23 records on July 20, 2014
WEATHER CONDITIONS BREAKOUT
WIND DIRECTION BREAKOUT
WEATHER BY HOUR - JULY 20, 2014
[ °C ]   °F
Local TimeTemperatureDewpointHumidityBarometerVisibilityWind DirectionWind SpeedGust SpeedPrecipitationEventsConditions
1:44 AM82.4 °F77.0 °F84 %30.02 in7.0 miESE (110°)5.8 mphScattered Clouds
2:43 AM82.4 °F77.0 °F84 %30.00 in7.0 miEast (100°)6.9 mphPartly Cloudy
3:48 AM82.4 °F77.0 °F84 %29.99 in7.0 miESE (120°)5.8 mphClear
4:47 AM80.6 °F77.0 °F89 %29.98 in7.0 miESE (110°)5.8 mphClear
5:46 AM80.6 °F77.0 °F89 %30.00 in7.0 miEast (100°)5.8 mphClear
6:45 AM80.6 °F77.0 °F89 %30.01 in7.0 miESE (110°)5.8 mphPartly Cloudy
7:40 AM84.2 °F77.0 °F79 %30.03 in7.0 miESE (110°)8.1 mphMostly Cloudy
8:40 AM86.0 °F77.0 °F74 %30.04 in7.0 miEast (90°)9.2 mphMostly Cloudy
9:48 AM87.8 °F75.2 °F66 %30.02 in7.0 miESE (110°)8.1 mphScattered Clouds
10:40 AM87.8 °F77.0 °F70 %30.04 in7.0 miSE (130°)10.4 mphScattered Clouds
11:45 AM89.6 °F75.2 °F62 %30.03 in7.0 miSE (130°)9.2 mphScattered Clouds
12:46 PM89.6 °F73.4 °F59 %30.00 in7.0 miESE (120°)8.1 mphScattered Clouds
1:40 PM89.6 °F73.4 °F59 %30.02 in7.0 miESE (110°)10.4 mphScattered Clouds
2:44 PM89.6 °F73.4 °F59 %30.00 in7.0 miENE (70°)9.2 mphScattered Clouds
3:45 PM87.8 °F75.2 °F66 %29.97 in7.0 miENE (70°)9.2 mphScattered Clouds
4:40 PM87.8 °F77.0 °F70 %29.98 in7.0 miEast (80°)6.9 mphScattered Clouds
5:41 PM87.8 °F77.0 °F70 %29.98 in7.0 miEast (100°)3.5 mphScattered Clouds
6:43 PM84.2 °F77.0 °F79 %29.99 in7.0 miEast (100°)8.1 mphScattered Clouds
7:45 PM84.2 °F77.0 °F79 %30.01 in7.0 miENE (70°)6.9 mphScattered Clouds
8:41 PM82.4 °F77.0 °F84 %30.02 in7.0 miNE (40°)2.3 mphScattered Clouds
9:45 PM82.4 °F78.8 °F89 %30.01 in7.0 miENE (70°)4.6 mphScattered Clouds
10:48 PM82.4 °F78.8 °F89 %30.04 in7.0 miNE (50°)4.6 mphScattered Clouds
11:40 PM82.4 °F77.0 °F84 %30.04 in7.0 miNE (50°)4.6 mphScattered Clouds
Hourly data recorded from MMUN, located miles away from Cancun, Quintana Roo







STORIES FROM OUR PARTNERS